Weather Roundup
Issued by NWS

Home | Current Version | Previous Version | Text Only | Print | Product List | Glossary On
Versions: 1 2 3 4 5 6 7 8 9 10 11 12 13 14 15 16 17 18 19 20 21 22 23 24 25 26 27 28 29 30 31 32 33 34 35 36 37 38 39 40 41 42 43 44 45 46 47 48 49 50
972
NZUS93 KARX 110210
HRRWXR

CURRENT HOURLY OBSERVATIONS ACROSS
MUCH OF THE UPPER MISSISSIPPI VALLEY
NATIONAL WEATHER SERVICE LA CROSSE WI
800 PM CST SAT DEC 10 2016


...SOUTHEAST MINNESOTA...


CITY           SKY/WX    TMP DP  RH WIND       PRES   REMARKS
ROCHESTER      LGT SNOW  12   9  87 SE13      30.17F FOG     WCI  -3
ROCHESTER/MAYO CLOUDY    12  10  92 E7        30.19F WCI   2
WINONA         LGT SNOW  18  14  86 SE8       30.26F WCI   7
AUSTIN         LGT SNOW  16  10  79 SE13      30.14F WCI   2
ALBERT LEA     LGT SNOW  18  16  93 E13       30.14F WCI   4
DODGE CENTER   LGT SNOW  10   9  92 E12       30.15F WCI  -4
PRESTON        LGT SNOW  12   9  88 E6        30.18F WCI   3
OWATONNA       LGT SNOW  12   9  85 E12       30.16F WCI  -2
FARIBAULT      LGT SNOW  12   9  85 E8        30.18F WCI   1
$$

...ELSEWHERE IN MINNESOTA...


CITY           SKY/WX    TMP DP  RH WIND       PRES   REMARKS
MINNEAPOLIS    LGT SNOW  12   7  80 E10       30.21F WCI  -1
INTNL FALLS    CLOUDY   -14 -19  79 CALM      30.25F
DULUTH         CLOUDY     1  -4  79 NE5       30.21F WCI  -9
RED WING       LGT SNOW  14   9  79 E8        30.22F WCI   3
REDWOOD FALLS  LGT SNOW  12   8  84 E9        30.13F VSB 1   WCI   0
MANKATO        LGT SNOW  12   9  87 E13       30.16S FOG     WCI  -3
WORTHINGTON    FLURRIES  15  13  91 E14       30.04S WCI   0
FAIRMONT       LGT SNOW  16  13  88 E13       30.10F FOG     WCI   2
$$

...SOUTHWEST WISCONSIN...


CITY           SKY/WX    TMP DP  RH WIND       PRES   REMARKS
LA CROSSE      LGT SNOW  17  12  80 SE7       30.27F WCI   8
PRAIRIE DU CHI LGT SNOW  20  17  86 E5        30.25F WCI  14
BOSCOBEL       LGT SNOW  20  16  84 NE5       30.27F FOG     WCI  13
LONE ROCK      LGT SNOW  20  16  84 E9        30.28F VSB 1   WCI   9
PLATTEVILLE    CLOUDY    21  20  98 SE8       30.25F WCI  11
FORT MC COY    LGT SNOW  16  14  92 E5        30.28F WCI   8
CAMP DOUGLAS   LGT SNOW  16  12  86 E7        30.27F FOG     WCI   6
MAUSTON-NEW LI LGT SNOW  16  13  88 E3        30.28S
VIROQUA        CLOUDY    15  13  93 E8        30.22F WCI   4
WIS DELLS      LGT SNOW  17  15  90 E5        30.27F VSB 3/4 WCI  10
$$

...ELSEWHERE IN WISCONSIN...


CITY           SKY/WX    TMP DP  RH WIND       PRES   REMARKS
MILWAUKEE      LGT SNOW  22  17  81 S6        30.33F WCI  14
MADISON        LGT SNOW  19  16  88 SE7       30.29F VSB 1   WCI  10
GREEN BAY      CLOUDY    19   9  65 W5        30.33F WCI  12
EAU CLAIRE     LGT SNOW  12   9  87 E6        30.25F FOG     WCI   3
BLACK RVR FLS  LGT SNOW  15  11  85 CALM      30.28F
MEDFORD        LGT SNOW   9   3  75 SE5       30.22F WCI   1
WAUSAU         CLOUDY    10   3  73 E6        30.26F WCI   0
WIS RAPIDS     LGT SNOW  14  12  92 SE3       30.29F FOG
MARSHFIELD     LGT SNOW  12   8  84 SE6       30.24F FOG     WCI   3
RICE LAKE      CLOUDY    12   5  73 E6        30.26S WCI   3
$$

...NORTHEAST IOWA...


CITY           SKY/WX    TMP DP  RH WIND       PRES   REMARKS
WATERLOO       CLOUDY    21  18  88 SE13      30.17F WCI   9
DUBUQUE        CLOUDY    20  18  92 SE14      30.22F WCI   7
DECORAH        LGT SNOW  18  16  93 E9        30.19F WCI   6
MASON CITY     LGT SNOW  19  16  88 SE15      30.13F FOG     WCI   5
CHARLES CITY   LGT SNOW  19  18  93 SE14      30.17F WCI   6
OELWEIN        CLOUDY    21  19  93 SE15      30.18F WCI   8
$$

...ELSEWHERE IN IOWA...


CITY           SKY/WX    TMP DP  RH WIND       PRES   REMARKS
DES MOINES     CLOUDY    26  18  71 SE10      30.10F WCI  16
IOWA CITY      CLOUDY    24  19  81 E12       30.22F WCI  13
FORT DODGE     CLOUDY    21  16  79 SE14G20   30.09F WCI   8
MARSHALLTOWN   CLOUDY    22  19  89 SE15      30.12F WCI   9
CEDAR RAPIDS   CLOUDY    22  20  92 SE14      30.17F WCI   9
$$

...NORTHERN ILLINOIS...


CITY           SKY/WX    TMP DP  RH WIND       PRES   REMARKS
CHICAGO-OHARE  LGT SNOW  22  20  92 SE10      30.34F VSB 3/4 WCI  11
CHICAGO-MIDWAY LGT SNOW  23  19  85 SE5       30.35F FOG     WCI  17
MOLINE         CLOUDY    24  18  77 E12       30.26F WCI  13
ROCKFORD       LGT SNOW  21  18  88 SE9       30.32F FOG     WCI  11
PEORIA         CLOUDY    26  20  77 SE9       30.28F WCI  17
$$

NOTE: "FAIR" INDICATES FEW OR NO CLOUDS BELOW 12,000 FEET WITH NO
SIGNIFICANT WEATHER AND/OR OBSTRUCTIONS TO VISIBILITY. WIND
SPEEDS ARE IN MILES-PER-HOUR.




USA.gov is the U.S. government's official web portal to all federal, state and local government web resources and services.